Weather History for Brisbane, QU

Change the Weather History Date:

Monday, November 25, 2013

  Actual Average Record
Temperature  
Mean Temperature 74 °F -  
Max Temperature 80 °F 84 °F 82 °F (2006)
Min Temperature 68 °F 68 °F 57 °F (2003)
Cooling Degree Days 9    
Growing Degree Days 24 (Base 50)    
Moisture  
Dew Point 66 °F    
Average Humidity 72    
Maximum Humidity 94    
Minimum Humidity 45    
Precipitation  
Precipitation 0.00 in 0.17 in - ()
Sea Level Pressure  
Sea Level Pressure 29.69 in    
Wind  
Wind Speed 7 mph ()    
Max Wind Speed 13 mph    
Max Gust Speed -    
Visibility 7.6 miles    
Events      
Averages and records for this station are not official NWS values.
T = Trace of Precipitation, MM = Missing Value Source: Averaged Metar Reports

Daily Weather History Graph

Daily Weather History Graph

Search for Another Location

Airport:

Trip Planner

Search our weather history database for the weather conditions in past years. The results will help you decide how hot, cold, wet, or windy it might be!

Date:

Astronomy

Nov. 25, 2013 Rise Set
Actual Time 4:45 AM EST 6:23 PM EST
Civil Twilight 4:19 AM EST 6:49 PM EST
Nautical Twilight 3:48 AM EST 7:20 PM EST
Astronomical Twilight 3:15 AM EST 7:53 PM EST
Moon 11:48 PM EST (11/25) 10:51 AM EST (11/25)
Length of Visible Light 14h 30m
Length of Day
13h 38m
Waning Gibbous, 57% of the Moon is Illuminated
Nov 25
Waning Gibbous
Nov 26
Last Quarter
Dec 3
New
Dec 10
First Quarter
Dec 17
Full

Hourly Weather History & Observations

Time (EST) Temp. Heat Index Dew Point Humidity Pressure Visibility Wind Dir Wind Speed Gust Speed Precip Events Conditions
12:00 AM 73 °F - 70 °F 87% 29.68 in 12 mi NNE 5.8 mph - -   Partly Cloudy
12:00 AM 73.4 °F - 69.8 °F 88% 29.65 in 6.2 mi NNE 5.8 mph - N/A   Mostly Cloudy
12:30 AM 73.4 °F - 69.8 °F 88% 29.65 in 6.2 mi Calm Calm - N/A   Scattered Clouds
1:00 AM 72 °F - 69 °F 87% 29.66 in - SSW 4.6 mph - -  
1:00 AM 71.6 °F - 69.8 °F 94% 29.65 in 6.2 mi SSW 4.6 mph - N/A   Partly Cloudy
1:30 AM 73.4 °F - 71.6 °F 94% 29.65 in 6.2 mi South 4.6 mph - N/A   Mostly Cloudy
2:30 AM 73.4 °F - 66.2 °F 78% 29.65 in 6.2 mi SE 10.4 mph - N/A   Scattered Clouds
3:00 AM 71 °F - 66 °F 79% 29.67 in 16 mi SSE 9.2 mph - -   Partly Cloudy
3:00 AM 71.6 °F - 66.2 °F 83% 29.65 in 6.2 mi SSE 9.2 mph - N/A   Partly Cloudy
3:30 AM 69.8 °F - 66.2 °F 88% 29.65 in - South 5.8 mph - N/A   Clear
4:00 AM 70 °F - 66 °F 83% 29.68 in - South 5.8 mph - -  
4:00 AM 69.8 °F - 66.2 °F 88% 29.65 in 6.2 mi South 5.8 mph - N/A   Scattered Clouds
4:30 AM 69.8 °F - 66.2 °F 88% 29.68 in 6.2 mi South 8.1 mph - N/A   Mostly Cloudy
5:00 AM 69.8 °F - 66.2 °F 88% 29.68 in 6.2 mi South 6.9 mph - N/A   Mostly Cloudy
5:30 AM 69.8 °F - 66.2 °F 88% 29.68 in 6.2 mi SSE 6.9 mph - N/A   Mostly Cloudy
6:00 AM 72 °F - 65 °F 72% 29.71 in 12 mi SSE 6.9 mph - -   Haze
6:00 AM 71.6 °F - 64.4 °F 78% 29.71 in 6.2 mi SSE 6.9 mph - N/A   Scattered Clouds
6:30 AM 73.4 °F - 64.4 °F 73% 29.71 in 6.2 mi SSE 6.9 mph - N/A   Partly Cloudy
7:00 AM 74 °F - 65 °F 66% 29.72 in - South 6.9 mph - -  
7:00 AM 73.4 °F - 64.4 °F 73% 29.71 in 6.2 mi South 6.9 mph - N/A   Scattered Clouds
7:30 AM 75.2 °F - 62.6 °F 65% 29.71 in 6.2 mi South 9.2 mph - N/A   Partly Cloudy
8:00 AM 75.2 °F - 64.4 °F 69% 29.71 in 6.2 mi South 8.1 mph - N/A   Partly Cloudy
8:30 AM 77.0 °F - 64.4 °F 65% 29.71 in 6.2 mi South 6.9 mph - N/A   Partly Cloudy
9:00 AM 80 °F - 65 °F 51% 29.72 in 12 mi ESE 6.9 mph - -   Haze
9:00 AM 78.8 °F - 64.4 °F 61% 29.71 in 6.2 mi ESE 6.9 mph - N/A   Scattered Clouds
9:30 AM 78.8 °F - 64.4 °F 61% 29.71 in 6.2 mi East 9.2 mph - N/A   Scattered Clouds
10:00 AM 79 °F - 62 °F 47% 29.70 in - ESE 10.4 mph - -  
10:00 AM 78.8 °F - 62.6 °F 57% 29.68 in 6.2 mi ESE 10.4 mph - N/A   Partly Cloudy
10:30 AM 78.8 °F - 60.8 °F 54% 29.68 in 6.2 mi ESE 12.7 mph - N/A   Partly Cloudy
11:00 AM 78.8 °F - 60.8 °F 54% 29.68 in 6.2 mi ESE 11.5 mph - N/A   Partly Cloudy
11:30 AM 78.8 °F - 60.8 °F 54% 29.68 in 6.2 mi East 11.5 mph - N/A   Partly Cloudy
12:00 PM 80 °F - 62 °F 45% 29.68 in 19 mi East 12.7 mph - -   Partly Cloudy
12:00 PM 78.8 °F - 62.6 °F 57% 29.65 in 6.2 mi East 12.7 mph - N/A   Partly Cloudy
12:30 PM 78.8 °F - 62.6 °F 57% 29.65 in 6.2 mi ESE 10.4 mph - N/A   Partly Cloudy
1:00 PM 80 °F - 66 °F 54% 29.66 in - East 11.5 mph - -  
1:00 PM 80.6 °F 82.7 °F 66.2 °F 61% 29.65 in 6.2 mi East 11.5 mph - N/A   Mostly Cloudy
1:30 PM 78.8 °F - 64.4 °F 61% 29.65 in 6.2 mi East 12.7 mph - N/A   Mostly Cloudy
2:00 PM 78.8 °F - 66.2 °F 65% 29.65 in 6.2 mi East 12.7 mph - N/A   Mostly Cloudy
2:30 PM 77.0 °F - 66.2 °F 69% 29.65 in 6.2 mi East 11.5 mph - N/A   Mostly Cloudy
3:00 PM 78 °F - 67 °F 60% 29.65 in 16 mi ESE 11.5 mph - -   Haze
3:00 PM 77.0 °F - 66.2 °F 69% 29.65 in 6.2 mi ESE 11.5 mph - N/A   Mostly Cloudy
3:30 PM 77.0 °F - 64.4 °F 65% 29.65 in 6.2 mi ENE 11.5 mph - N/A   Mostly Cloudy
4:00 PM 76 °F - 65 °F 61% 29.65 in - East 10.4 mph - -  
4:00 PM 77.0 °F - 64.4 °F 65% 29.65 in 6.2 mi East 10.4 mph - N/A   Mostly Cloudy
4:30 PM 75.2 °F - 66.2 °F 73% 29.65 in 6.2 mi ESE 11.5 mph - N/A   Mostly Cloudy
5:00 PM 75.2 °F - 64.4 °F 69% 29.65 in 6.2 mi ESE 10.4 mph - N/A   Scattered Clouds
5:30 PM 75.2 °F - 66.2 °F 73% 29.65 in 6.2 mi East 8.1 mph - N/A   Scattered Clouds
6:00 PM 74 °F - 65 °F 68% 29.70 in 19 mi East 8.1 mph - -   Partly Cloudy
6:00 PM 75.2 °F - 66.2 °F 73% 29.68 in 6.2 mi East 8.1 mph - N/A   Mostly Cloudy
6:30 PM 73.4 °F - 66.2 °F 78% 29.68 in 6.2 mi East 9.2 mph - N/A   Mostly Cloudy
7:00 PM 74 °F - 66 °F 70% 29.72 in - East 8.1 mph - -  
7:00 PM 73.4 °F - 66.2 °F 78% 29.71 in 6.2 mi East 8.1 mph - N/A   Mostly Cloudy
7:30 PM 73.4 °F - 66.2 °F 78% 29.74 in 6.2 mi East 5.8 mph - N/A   Mostly Cloudy
8:00 PM 73.4 °F - 66.2 °F 78% 29.74 in 6.2 mi East 5.8 mph - N/A   Scattered Clouds
8:30 PM 73.4 °F - 66.2 °F 78% 29.74 in 6.2 mi East 6.9 mph - N/A   Scattered Clouds
9:00 PM 73 °F - 67 °F 78% 29.76 in 19 mi ESE 4.6 mph - -   Partly Cloudy
9:00 PM 73.4 °F - 68.0 °F 83% 29.74 in 6.2 mi ESE 4.6 mph - N/A   Mostly Cloudy
9:30 PM 73.4 °F - 66.2 °F 78% 29.74 in 6.2 mi ESE 4.6 mph - N/A   Mostly Cloudy
10:00 PM 73 °F - 67 °F 76% 29.78 in - SE 5.8 mph - -  
10:00 PM 73.4 °F - 66.2 °F 78% 29.77 in 6.2 mi SE 5.8 mph - N/A   Mostly Cloudy
10:30 PM 71.6 °F - 66.2 °F 83% 29.77 in 6.2 mi SE 5.8 mph - N/A   Partly Cloudy
11:00 PM 71.6 °F - 66.2 °F 83% 29.77 in 6.2 mi SSE 6.9 mph - N/A   Scattered Clouds
11:30 PM 71.6 °F - 66.2 °F 83% 29.77 in 6.2 mi South 6.9 mph - N/A   Partly Cloudy